Anchorage, AK

1:10 PM AKST on February 09, 2016 (GMT -0900)
Merrill

Weather History for PAMR - March, 2013

Change the Weather History Date:

Friday, March 15, 2013

  Actual Average Record
Temperature  
Mean Temperature 20 °F -  
Max Temperature 32 °F 32 °F 42 °F (1998)
Min Temperature 8 °F 15 °F -9 °F (2007)
Degree Days  
Heating Degree Days 45    
Moisture  
Dew Point 4 °F    
Average Humidity 52    
Maximum Humidity 80    
Minimum Humidity 29    
Precipitation  
Precipitation 0.00 in - - ()
Snow  
Snow 0.00 in - - ()
Snow Depth 10.00 in    
Sea Level Pressure  
Sea Level Pressure 29.77 in    
Wind  
Wind Speed 3 mph (NNE)    
Max Wind Speed 7 mph    
Max Gust Speed -    
Visibility 10 miles    
Events      
Averages and records for this station are not official NWS values.
T = Trace of Precipitation, MM = Missing Value Source: NWS Daily Summary

Daily Weather History Graph

Daily Weather History Graph

Search for Another Location

Airport or City:

Trip Planner

Search our weather history database for the weather conditions in past years. The results will help you decide how hot, cold, wet, or windy it might be!

Date:

Astronomy

Mar. 15, 2013 Rise Set
Actual Time 8:15 AM AKDT 8:02 PM AKDT
Civil Twilight 7:32 AM AKDT 8:45 PM AKDT
Nautical Twilight 6:41 AM AKDT 9:37 PM AKDT
Astronomical Twilight 5:46 AM AKDT 10:32 PM AKDT
Moon 8:56 AM AKDT (3/15) 12:37 AM AKDT (3/15)
Length of Visible Light 13h 13m
Length of Day
11h 47m
Waxing Crescent, 16% of the Moon is Illuminated
Mar 15
Waxing Crescent
Mar 19
First Quarter
Mar 27
Full
Apr 2
Last Quarter
Apr 10
New

Hourly Weather History & Observations

Time (AKDT) Temp. Windchill Dew Point Humidity Pressure Visibility Wind Dir Wind Speed Gust Speed Precip Events Conditions
12:53 AM 21.0 °F 14.6 °F 3.9 °F 48% 29.85 in 10.0 mi North 4.6 mph - N/A   Scattered Clouds
1:53 AM 19.9 °F 11.1 °F 8.1 °F 60% 29.84 in 10.0 mi North 6.9 mph - N/A   Scattered Clouds
2:53 AM 19.0 °F 13.9 °F 7.0 °F 59% 29.82 in 10.0 mi ESE 3.5 mph - N/A   Scattered Clouds
3:53 AM 12.0 °F - 3.9 °F 70% 29.81 in 10.0 mi Calm Calm - N/A   Scattered Clouds
4:53 AM 10.0 °F - 3.9 °F 76% 29.79 in 10.0 mi Calm Calm - N/A   Scattered Clouds
5:53 AM 8.1 °F 1.4 °F 3.0 °F 80% 29.79 in 10.0 mi East 3.5 mph - N/A   Scattered Clouds
6:53 AM 8.1 °F - 3.0 °F 80% 29.78 in 10.0 mi Calm Calm - N/A   Clear
7:53 AM 8.1 °F 1.4 °F 1.9 °F 76% 29.77 in 10.0 mi East 3.5 mph - N/A   Clear
8:53 AM 8.1 °F - 1.9 °F 76% 29.75 in 10.0 mi Calm Calm - N/A   Clear
9:53 AM 8.1 °F - 1.9 °F 76% 29.74 in 10.0 mi Calm Calm - N/A   Clear
10:53 AM 17.1 °F - 5.0 °F 59% 29.74 in 10.0 mi Calm Calm - N/A   Clear
11:53 AM 25.0 °F 18.1 °F 3.0 °F 39% 29.74 in 10.0 mi NNE 5.8 mph - N/A   Clear
12:53 PM 27.0 °F - 1.9 °F 34% 29.73 in 10.0 mi Calm Calm - N/A   Clear
1:53 PM 28.9 °F 21.9 °F 1.0 °F 30% 29.72 in 10.0 mi North 6.9 mph - N/A   Clear
2:53 PM 30.0 °F 24.1 °F 6.1 °F 36% 29.72 in 10.0 mi NNW 5.8 mph - N/A   Clear
3:53 PM 30.9 °F 26.2 °F 3.9 °F 32% 29.73 in 10.0 mi North 4.6 mph - N/A   Clear
4:53 PM 30.9 °F 26.2 °F 5.0 °F 33% 29.73 in 10.0 mi North 4.6 mph - N/A   Clear
5:53 PM 32.0 °F 26.4 °F 3.0 °F 29% 29.74 in 10.0 mi North 5.8 mph - N/A   Clear
6:53 PM 30.0 °F 24.1 °F 3.0 °F 32% 29.75 in 10.0 mi North 5.8 mph - N/A   Clear
7:53 PM 28.0 °F 22.8 °F 5.0 °F 38% 29.76 in 10.0 mi NNE 4.6 mph - N/A   Clear
8:53 PM 25.0 °F 19.3 °F 3.9 °F 41% 29.77 in 10.0 mi NNE 4.6 mph - N/A   Clear
9:53 PM 23.0 °F - 3.9 °F 44% 29.79 in 10.0 mi Calm Calm - N/A   Clear
10:53 PM 21.0 °F - 3.0 °F 46% 29.81 in 10.0 mi Calm Calm - N/A   Clear
11:53 PM 14.0 °F - 3.9 °F 64% 29.83 in 10.0 mi Calm Calm - N/A   Clear